Location: *
(43.4667°N, 11.6833°E)
Time: 00:57:44
(UTC+00:00)

Gbstr 26 Del rocket - Pass Details

Date: 19 July 2019
Orbit: 493 x 1264 km, 51.8° (Epoch: 24 August)

Event Time Altitude Azimuth Distance (km) Brightness Sun altitude
Rises 23:26:13 0° 303° (WNW) 2,580 6.7 -25.8°
Reaches altitude 10° 23:28:28 10° 312° (NW) 1,692 5.8 -25.7°
Maximum altitude 23:31:59 38° 22° (NNE) 795 4.0 -25.7°
Enters shadow 23:33:19 28° 65° (ENE) 991 4.3 -25.7°
